, IN

(GMT )
Eagle Creek

Weather History for KEYE - February, 2013

Change the Weather History Date:

Sunday, February 24, 2013

  Actual Average Record
Temperature  
Mean Temperature 30 °F 34 °F  
Max Temperature 39 °F 43 °F 63 °F (2001)
Min Temperature 20 °F 26 °F -7 °F (2015)
Degree Days  
Heating Degree Days 35 31  
Month to date heating degree days 836 776  
Since 1 July heating degree days 3995 3977  
Cooling Degree Days 0 0  
Month to date cooling degree days 0 0  
Year to date cooling degree days 0 0  
Moisture  
Dew Point 22 °F    
Average Humidity 76    
Maximum Humidity 92    
Minimum Humidity 59    
Precipitation  
Precipitation 0.00 in 0.08 in 1.08 in (2016)
Month to date precipitation 0.97 1.72  
Year to date precipitation 5.64 3.93  
Sea Level Pressure  
Sea Level Pressure 30.09 in    
Wind  
Wind Speed 3 mph (NW)    
Max Wind Speed 14 mph    
Max Gust Speed 17 mph    
Visibility 9 miles    
Events      
T = Trace of Precipitation, MM = Missing Value Source: NWS Daily Summary

Daily Weather History Graph

Daily Weather History Graph

Search for Another Location

Airport or City:

Trip Planner

Search our weather history database for the weather conditions in past years. The results will help you decide how hot, cold, wet, or windy it might be!

Date:

Astronomy

Feb. 24, 2013 Rise Set
Actual Time 7:25 AM EST 6:31 PM EST
Civil Twilight 6:58 AM EST 6:59 PM EST
Nautical Twilight 6:26 AM EST 7:30 PM EST
Astronomical Twilight 5:55 AM EST 8:01 PM EST
Moon 5:42 PM EST (2/24) 6:22 AM EST (2/24)
Length of Visible Light 12h 01m
Length of Day
11h 06m
Waxing Gibbous, 99% of the Moon is Illuminated
Feb 24
Waxing Gibbous
Feb 25
Full
Mar 4
Last Quarter
Mar 11
New
Mar 19
First Quarter

Hourly Weather History & Observations

Time (EST) Temp. Windchill Dew Point Humidity Pressure Visibility Wind Dir Wind Speed Gust Speed Precip Events Conditions
12:38 AM 26.6 °F 20.0 °F 21.2 °F 80% 29.98 in 10.0 mi WNW 5.8 mph - N/A   Overcast
12:53 AM 26.1 °F 16.2 °F 21.9 °F 84% 30.01 in 9.0 mi NW 10.4 mph - N/A   Overcast
1:34 AM 24.8 °F 15.3 °F 21.2 °F 86% 29.99 in 10.0 mi NNW 9.2 mph - N/A   Overcast
1:53 AM 25.0 °F 18.1 °F 19.9 °F 81% 30.02 in 10.0 mi NW 5.8 mph - N/A   Overcast
2:32 AM 24.8 °F 16.9 °F 19.4 °F 80% 29.98 in 10.0 mi NW 6.9 mph - N/A   Scattered Clouds
2:53 AM 25.0 °F 16.3 °F 19.9 °F 81% 30.02 in 10.0 mi NW 8.1 mph - N/A   Scattered Clouds
3:04 AM 24.8 °F 16.9 °F 19.4 °F 80% 30.00 in 10.0 mi WNW 6.9 mph - N/A   Mostly Cloudy
3:40 AM 24.8 °F 20.5 °F 19.4 °F 80% 30.01 in 10.0 mi WNW 3.5 mph - N/A   Scattered Clouds
3:53 AM 24.1 °F 19.7 °F 19.9 °F 84% 30.03 in 10.0 mi NW 3.5 mph - N/A   Clear
4:53 AM 23.0 °F - 19.9 °F 88% 30.04 in 8.0 mi Calm Calm - N/A   Clear
5:53 AM 21.9 °F - 19.9 °F 92% 30.06 in 7.0 mi Calm Calm - N/A   Clear
6:53 AM 21.0 °F - 18.0 °F 88% 30.09 in 6.0 mi Calm Calm - N/A   Clear
7:53 AM 21.0 °F - 19.9 °F 96% 30.10 in 4.0 mi Calm Calm - N/A   Clear
8:53 AM 25.0 °F - 21.0 °F 85% 30.12 in 6.0 mi Calm Calm - N/A   Clear
9:53 AM 28.9 °F 23.9 °F 21.9 °F 75% 30.14 in 10.0 mi NNW 4.6 mph - N/A   Clear
10:53 AM 30.9 °F 27.5 °F 21.9 °F 69% 30.14 in 10.0 mi WNW 3.5 mph - N/A   Clear
11:53 AM 33.1 °F 26.9 °F 21.9 °F 64% 30.15 in 10.0 mi WNW 6.9 mph - N/A   Clear
12:53 PM 35.1 °F 29.3 °F 23.0 °F 61% 30.14 in 10.0 mi WNW 6.9 mph - N/A   Clear
1:53 PM 36.0 °F 33.3 °F 24.1 °F 62% 30.13 in 10.0 mi NW 3.5 mph - N/A   Clear
2:53 PM 37.9 °F 33.5 °F 25.0 °F 60% 30.12 in 10.0 mi NNW 5.8 mph - N/A   Clear
3:53 PM 37.9 °F 34.4 °F 25.0 °F 60% 30.12 in 10.0 mi NW 4.6 mph - N/A   Clear
4:53 PM 37.9 °F 35.5 °F 26.1 °F 62% 30.13 in 10.0 mi West 3.5 mph - N/A   Clear
5:53 PM 37.0 °F 33.3 °F 26.1 °F 65% 30.13 in 10.0 mi North 4.6 mph - N/A   Clear
6:53 PM 35.1 °F - 25.0 °F 67% 30.13 in 10.0 mi Calm Calm - N/A   Clear
7:53 PM 33.1 °F - 27.0 °F 78% 30.16 in 10.0 mi Calm Calm - N/A   Clear
8:53 PM 30.0 °F - 26.1 °F 85% 30.16 in 10.0 mi Calm Calm - N/A   Clear
9:53 PM 28.9 °F - 24.1 °F 82% 30.15 in 10.0 mi Calm Calm - N/A   Clear
10:53 PM 28.9 °F - 24.1 °F 82% 30.16 in 9.0 mi Calm Calm - N/A   Clear
11:53 PM 27.0 °F - 23.0 °F 85% 30.16 in 8.0 mi Calm Calm - N/A   Clear